sat.trackr.live / text

‹ back to catalog

ORBCOMM FM118

NORAD 41183 · 2015-081E

PAYLOAD ACTIVE UNKNOWN

§ Identity

Operator
Country
ORB
Launch date
2015-12-22
Launch site
AFETR
Launch vehicle
Mass (kg)
RCS (m²)
0.51

Purposes: comms

External: N2YO · Heavens-Above · Gunter

§ Orbital elements

Epoch: 2026-09-20T01:21:28.135296Z

Period
98.70 min
Inclination
47.0035°
Eccentricity
0.0001703
Mean motion
14.58975564 rev/d
Perigee alt
695.3 km
Apogee alt
697.7 km
Semi-major
7,074.6 km
B*
8.8179e-5
RAAN
273.1888°
Arg perigee
117.4394°
Mean anomaly
242.6665°
Rev number
57,158

§ Raw data

ORBCOMM FM1181 41183U 15081E   26263.05657564  .00000246  00000+0  88179-4 0  99972 41183  47.0035 273.1888 0001703 117.4394 242.6665 14.58975564571586

JSON: /api/v1/satellites/41183 · /tle

For live sub-satellite position, see the globe view (requires WebGL).

§ Visibility from observer

Set your observer location to see the next 7 days of passes ≥ 10°. The values pass through the URL so the page stays shareable.

No JS? Fill the form by hand. The geolocation button needs JavaScript.

§ Radio — SatNOGS DB

ModeDescriptionDownlinkUplink
FM Telemetry 137.288 MHz

1 transmitter · refreshed weekly from db.satnogs.org